Regional Weather Roundup
Issued by NWS

Home | Current Version | Previous Version | Graphics & Text | Print | Product List | Glossary On
Versions: 1 2 3 4 5 6 7 8 9 10 11 12 13 14 15 16 17 18 19 20 21 22 23 24 25 26 27 28 29 30 31 32 33 34 35 36 37 38 39 40 41 42 43 44 45 46 47 48 49 50
000
ASUS43 KMKX 092200
RWRWI

WISCONSIN REGIONAL WEATHER ROUNDUP
NATIONAL WEATHER SERVICE MILWAUKEE/SULLIVAN WI
500 PM CDT WED JUL 09 2014

NOTE: "FAIR" INDICATES FEW OR NO CLOUDS BELOW 12,000 FEET WITH NO
SIGNIFICANT WEATHER AND/OR OBSTRUCTIONS TO VISIBILITY.

WIZ001-002-006>008-014>016-023>028-092300-
NORTHWEST WISCONSIN

CITY           SKY/WX    TMP DP  RH WIND       PRES   REMARKS
SUPERIOR ARPT  MOSUNNY   74  51  43 NW5       29.98S
ASHLAND        SUNNY     71  50  47 CALM      30.01S
HAYWARD        SUNNY     71  47  42 N9        30.01S
SIREN          MOSUNNY   74  52  47 S3        29.99S
RICE LAKE      PTSUNNY   69  55  59 CALM      30.01S
LADYSMITH      MOSUNNY   72  52  50 N6        30.02F
EAU CLAIRE     NOT AVBL
MENOMONIE      PTCLDY    76  52  42 W6        30.00S
NEW RICHMOND   SUNNY     74  54  48 NW6       30.00S
OSCEOLA        SUNNY     75  54  47 W9        30.01F
$$

WIZ003>005-009-010-017-018-092300-
NORTH CENTRAL WISCONSIN

CITY           SKY/WX    TMP DP  RH WIND       PRES   REMARKS
WOODRUFF       SUNNY     69  46  43 NW9       30.02S
RHINELANDER    MOSUNNY   66  47  50 NW8       30.02S
EAGLE RIVER    CLOUDY    65  44  46 N7        30.01S
LAND O LAKES   MOSUNNY   64  46  53 N6        30.02R
PHILLIPS       MOSUNNY   66  49  53 N7        30.01F
TOMAHAWK       MOSUNNY   67  47  47 NW10G16   30.02S
MEDFORD        MOSUNNY   69  50  51 NW9       30.01S
MERRILL        PTSUNNY   68  49  50 N6        30.01R
$$

WIZ029-030-035-036-043>047-092300-
CENTRAL WISCONSIN

CITY           SKY/WX    TMP DP  RH WIND       PRES   REMARKS
WAUSAU         CLOUDY    69  47  45 N8        30.00R
MOSINEE        PTSUNNY   66  50  55 NW9       30.02R
MARSHFIELD     SUNNY     69  51  52 NW13      30.01S
STEVENS POINT  CLOUDY    66  49  53 NW7       30.01S
WAUPACA        CLOUDY    71  50  47 N5        30.01R
WAUTOMA        NOT AVBL
WISC RAPIDS    PTSUNNY   74  50  42 NW15      30.02S
CAMP DOUGLAS   NOT AVBL
$$

WIZ011>013-019>022-031-037>040-048>050-092300-
NORTHEAST WISCONSIN

CITY           SKY/WX    TMP DP  RH WIND       PRES   REMARKS
ANTIGO         CLOUDY    65  48  54 N8G16     30.02R
STURGEON BAY   CLOUDY    64  52  63 W3        29.99S
GREEN BAY      PTSUNNY   72  50  45 NW14      29.98R
MANITOWOC      NOT AVBL
APPLETON       PTSUNNY   70  46  43 NW12G20   30.00
CLINTONVILLE   CLOUDY    70  45  40 NW12      29.99S
OSHKOSH        CLOUDY    70  50  49 NW13G18   29.99R
$$

WIZ032>034-041-042-053>061-092300-
SOUTHWEST WISCONSIN

CITY           SKY/WX    TMP DP  RH WIND       PRES   REMARKS
LA CROSSE      SUNNY     78  53  41 W6        30.00S
SPARTA         SUNNY     74  48  40 NW5       30.02S
VIROQUA        FAIR      73  52  47 NW7       30.03S
BOSCOBEL       MOSUNNY   79  53  40 N7        30.01S
PRAIRIE DU CHI CLOUDY    74  52  45 N5        30.01S
PLATTEVILLE    FAIR      76  52  43 NW8       30.03S
$$

WIZ056-057-062-063-064-067-068-092300-
SOUTH CENTRAL WISCONSIN

CITY           SKY/WX    TMP DP  RH WIND       PRES   REMARKS
BARABOO/DELLS  CLOUDY    72  47  41 NW5       30.02S
LONE ROCK      NOT AVBL
WATERTOWN      PTSUNNY   71  51  49 NW10      30.00R
MADISON        PTSUNNY   76  50  40 NW10G16   30.01R
MIDDLETON      MOCLDY    76  48  37 N10       30.02R
MONROE         PTSUNNY   73  52  46 N8        30.01S
JANESVILLE     MOSUNNY   73  46  38 NW14      30.00R
$$

WIZ051-052-058>065-066-070>072-092300-
SOUTHEAST WISCONSIN

CITY           SKY/WX    TMP DP  RH WIND       PRES   REMARKS
MILWAUKEE      MOSUNNY   67  59  75 SE7       29.99R
WAUKESHA       PTSUNNY   72  48  43 NW15      30.00R
MILWAUKEE/TIMM NOT AVBL
RACINE         SUNNY     67  58  72 SE8       30.00R
BURLINGTON     MOSUNNY   73  51  47 NW15G21   29.99R
KENOSHA        MOSUNNY   75  51  43 NW14      29.98R
FOND DU LAC    PTSUNNY   71  48  43 NW10      29.99R
SHEBOYGAN      CLOUDY    70  50  49 N8        29.99R
WEST BEND      MOSUNNY   72  45  37 NW12      29.99R
JUNEAU         MOSUNNY   71  32  23 W9G17     30.01S
$$

LSZ147-162-092300-
LAKE SUPERIOR

STATION/POSITION TIME  TEMP    WIND        PRES    WAVE
                       AIR SEA DIR/SP/G            HT/PER
                 (UTC) (F)     (DEG/KT/KT) (MB)    (FT/S)
W MID LAKE BUOY  2050   44 38  210/  8/ 10 1015.9R   0
DEVILS ISLAND    2100   64     210/  8/  9 1015.7R
PORT WING        1940   68      10/  3/  4 1015.6S
SAXON HARBOR     2100             CALM     1016.3S
$$

LMZ867-665-643>646-092300-
LAKE MICHIGAN

STATION/POSITION TIME  TEMP    WIND        PRES    WAVE
                       AIR SEA DIR/SP/G            HT/PER
                 (UTC) (F)     (DEG/KT/KT) (MB)    (FT/S)
N MID LAKE BUOY  2050   58 56  230/  4/  6 1014.3R   0
NORTHPORT PIER   2100   63     290/  5/  8 1014.6S
SISTER BAY       2010   66        CALM       N/A
KEWAUNEE LAKESHO 2100   56     170/  7/  8 1016.0R
SHEBOYGAN LAKESH 2100   59     180/ 18/ 18 1015.0R
PORT WASHINGTON  2100   62     160/  3/  6 1015.9R
ATWATER BUOY     2100   62     130/  8     1016.2R
MILWAUKEE LAKESH 2100   61     100/  5/  6   N/A
S MID LAKE BUOY  2050   58 57  110/  2/  4 1015.3R   0
KENOSHA   LAKESH 2100   64     130/ 10/ 12   N/A
$$

TC  - TEMPERATURE IN CELSIUS
VSB - VISIBILITY IN STATUTE MILES
WCI - WIND CHILL INDEX
HX  - HEAT INDEX




USA.gov is the U.S. government's official web portal to all federal, state and local government web resources and services.